This is the latest recevied weather packets stored in our database for station/object XE2B-20. If no packets are shown the sender has not sent any weather packets the latest 10 day(s).
| Time | Temp. | Humidity | Pressure | Rain* | Wind** | Luminosity | Snow |
|---|---|---|---|---|---|---|---|
| 1788459573 | 30° C | 51% | 809 hPa | - | - | - | - |
| 1788458074 | 28.33° C | 55% | 809.5 hPa | - | - | - | - |
| 1788456583 | 31.67° C | 48% | 809.8 hPa | - | - | - | - |
| 1788455075 | 30.56° C | 50% | 809.9 hPa | - | - | - | - |
| 1788453578 | 32.78° C | 46% | 810.1 hPa | - | - | - | - |
| 1788452078 | 30.56° C | 49% | 810.4 hPa | - | - | - | - |
| 1788450579 | 28.33° C | 50% | 810.4 hPa | - | - | - | - |
| 1788449080 | 26.67° C | 52% | 810.5 hPa | - | - | - | - |
| 1788447578 | 20° C | 61% | 810.4 hPa | - | - | - | - |
| 1788446087 | 18.33° C | 64% | 810.6 hPa | - | - | - | - |
| 1788444580 | 16.67° C | 65% | 810.5 hPa | - | - | - | - |
| 1788443082 | 15.56° C | 66% | 810.3 hPa | - | - | - | - |
| 1788441583 | 15° C | 67% | 810.2 hPa | - | - | - | - |
| 1788440084 | 14.44° C | 67% | 810 hPa | - | - | - | - |
| 1788438585 | 13.89° C | 68% | 809.7 hPa | - | - | - | - |
| 1788437087 | 13.89° C | 67% | 809.3 hPa | - | - | - | - |
| 1788435588 | 13.89° C | 67% | 809.4 hPa | - | - | - | - |
| 1788434088 | 13.89° C | 67% | 809.5 hPa | - | - | - | - |
| 1788432589 | 13.89° C | 67% | 809.5 hPa | - | - | - | - |
| 1788431090 | 14.44° C | 67% | 809.3 hPa | - | - | - | - |
| 1788429592 | 14.44° C | 66% | 809.3 hPa | - | - | - | - |
| 1788428094 | 14.44° C | 66% | 809.5 hPa | - | - | - | - |
| 1788426594 | 14.44° C | 66% | 809.6 hPa | - | - | - | - |
| 1788425095 | 14.44° C | 66% | 809.9 hPa | - | - | - | - |
| 1788423596 | 15° C | 66% | 810.1 hPa | - | - | - | - |
* Rain since midnight (hover to see other rain measurements)
** Current wind speed in m/s (hover to see current wind gust speed)